Terug naar catalogus

REX 2

ActiefWetenschapPO
NORAD 23814·PAYLOAD·🇺🇸 United States

Gelanceerd Mar 9, 1996 vanaf Vandenberg Space Force Base

Loading…

Volgende Passages (komende 24 uur)

TLE

VersSource: Space-Track

Epoch: Sep 14, 2026, 04:53 UTC

1 23814U 96014A   26257.20376454  .00000118  00000-0  45089-4 0  9991
2 23814  90.0142 341.3423 0020976 204.2140 155.8070 14.25380114585871

Volg REX 2 in realtime met AllMySat

Download on the App Store